Weather History for Escanaba, MI

Change the Weather History Date:

Monday, January 14, 2013

  Actual Average Record
Temperature  
Mean Temperature 16 °F -  
Max Temperature 24 °F 24 °F 40 °F (1987)
Min Temperature 8 °F 7 °F -19 °F (1972)
Degree Days  
Heating Degree Days 50    
Moisture  
Dew Point 4 °F    
Average Humidity 61    
Maximum Humidity 73    
Minimum Humidity 38    
Precipitation  
Precipitation 0.00 in - - ()
Sea Level Pressure  
Sea Level Pressure 30.25 in    
Wind  
Wind Speed 11 mph (WSW)    
Max Wind Speed 17 mph    
Max Gust Speed 23 mph    
Visibility 10 miles    
Events      
Averages and records for this station are not official NWS values.
T = Trace of Precipitation, MM = Missing Value Source: NWS Daily Summary

Daily Weather History Graph

Daily Weather History Graph

Search for Another Location

Airport:

Trip Planner

Search our weather history database for the weather conditions in past years. The results will help you decide how hot, cold, wet, or windy it might be!

Date:

Astronomy

Jan. 14, 2013 Rise Set
Actual Time 8:25 AM EST 5:29 PM EST
Civil Twilight 7:52 AM EST 6:03 PM EST
Nautical Twilight 7:15 AM EST 6:39 PM EST
Astronomical Twilight 6:39 AM EST 7:15 PM EST
Moon 9:46 AM EST (1/14) 9:28 PM EST (1/14)
Length of Visible Light 10h 10m
Length of Day
9h 03m
Waxing Crescent, 11% of the Moon is Illuminated
Jan 14
Waxing Crescent
Jan 18
First Quarter
Jan 26
Full
Feb 3
Last Quarter
Feb 10
New

Hourly Weather History & Observations

Time (EST) Temp. Windchill Dew Point Humidity Pressure Visibility Wind Dir Wind Speed Gust Speed Precip Events Conditions
12:15 AM 17.6 °F 5.7 °F 10.4 °F 73% 30.04 in 5.0 mi WNW 10.4 mph 21.9 mph N/A   Overcast
12:35 AM 17.6 °F 2.2 °F 6.8 °F 63% 30.04 in 7.0 mi WNW 17.3 mph 23.0 mph N/A   Overcast
12:55 AM 17.6 °F 4.3 °F 6.8 °F 63% 30.05 in 8.0 mi WNW 12.7 mph 19.6 mph N/A   Mostly Cloudy
1:15 AM 15.8 °F 4.2 °F 8.6 °F 73% 30.06 in 10.0 mi WNW 9.2 mph - N/A   Mostly Cloudy
1:35 AM 15.8 °F 2.7 °F 8.6 °F 73% 30.07 in 10.0 mi West 11.5 mph - N/A   Partly Cloudy
1:55 AM 15.8 °F 1.4 °F 6.8 °F 68% 30.08 in 10.0 mi West 13.8 mph - N/A   Clear
2:15 AM 14.0 °F 0.5 °F 6.8 °F 73% 30.09 in 10.0 mi West 11.5 mph 18.4 mph N/A   Clear
2:35 AM 12.2 °F -2.5 °F 5.0 °F 73% 30.10 in 10.0 mi West 12.7 mph - N/A   Clear
2:55 AM 12.2 °F -1.0 °F 3.2 °F 67% 30.12 in 10.0 mi West 10.4 mph - N/A   Clear
3:15 AM 12.2 °F -0.2 °F 3.2 °F 67% 30.13 in 10.0 mi West 9.2 mph - N/A   Clear
3:55 AM 10.4 °F -4.8 °F 1.4 °F 67% 30.15 in 10.0 mi West 12.7 mph - N/A   Clear
4:35 AM 10.4 °F -3.3 °F 1.4 °F 67% 30.16 in 10.0 mi West 10.4 mph - N/A   Clear
4:55 AM 10.4 °F -2.4 °F 1.4 °F 67% 30.17 in 10.0 mi West 9.2 mph - N/A   Clear
5:15 AM 10.4 °F -3.3 °F 1.4 °F 67% 30.18 in 10.0 mi West 10.4 mph - N/A   Clear
5:35 AM 10.4 °F -4.8 °F 1.4 °F 67% 30.18 in 10.0 mi West 12.7 mph - N/A   Clear
5:55 AM 10.4 °F -3.3 °F 1.4 °F 67% 30.19 in 10.0 mi West 10.4 mph - N/A   Clear
6:15 AM 8.6 °F -5.5 °F 1.4 °F 73% 30.19 in 10.0 mi West 10.4 mph - N/A   Clear
6:35 AM 8.6 °F -5.5 °F 1.4 °F 73% 30.22 in 10.0 mi West 10.4 mph - N/A   Clear
6:55 AM 8.6 °F -6.3 °F 1.4 °F 73% 30.23 in 10.0 mi West 11.5 mph - N/A   Clear
7:15 AM 8.6 °F -6.3 °F 1.4 °F 73% 30.24 in 10.0 mi West 11.5 mph 17.3 mph N/A   Clear
7:35 AM 8.6 °F -6.3 °F 1.4 °F 73% 30.25 in 10.0 mi West 11.5 mph - N/A   Clear
7:55 AM 8.6 °F -5.5 °F 1.4 °F 73% 30.27 in 10.0 mi West 10.4 mph - N/A   Clear
8:15 AM 8.6 °F -5.5 °F 1.4 °F 73% 30.28 in 10.0 mi West 10.4 mph - N/A   Clear
8:35 AM 8.6 °F -7.0 °F 1.4 °F 73% 30.30 in 10.0 mi West 12.7 mph - N/A   Clear
8:55 AM 8.6 °F -6.3 °F 1.4 °F 73% 30.31 in 10.0 mi West 11.5 mph - N/A   Clear
9:15 AM 8.6 °F -6.3 °F 1.4 °F 73% 30.33 in 10.0 mi West 11.5 mph - N/A   Clear
10:15 AM - - - N/A% 30.35 in - West 11.5 mph - N/A   Unknown
10:35 AM 12.2 °F -1.0 °F -9.4 °F 38% 30.34 in 10.0 mi West 10.4 mph - N/A   Clear
10:55 AM 14.0 °F 2.9 °F 3.2 °F 62% 30.34 in 10.0 mi West 8.1 mph - N/A   Partly Cloudy
11:15 AM 15.8 °F 5.1 °F 3.2 °F 58% 30.34 in 10.0 mi West 8.1 mph - N/A   Clear
11:35 AM 17.6 °F 6.4 °F 5.0 °F 58% 30.33 in 10.0 mi WSW 9.2 mph - N/A   Clear
11:55 AM 17.6 °F 5.0 °F 5.0 °F 58% 30.33 in 10.0 mi WSW 11.5 mph - N/A   Clear
12:15 PM 19.4 °F 6.6 °F 5.0 °F 54% 30.32 in 10.0 mi West 12.7 mph - N/A   Clear
12:35 PM 19.4 °F 7.9 °F 5.0 °F 54% 30.31 in 10.0 mi WNW 10.4 mph - N/A   Clear
12:55 PM 19.4 °F 10.4 °F 3.2 °F 49% 30.30 in 10.0 mi WSW 6.9 mph - N/A   Clear
1:15 PM 21.2 °F 11.7 °F 5.0 °F 50% 30.28 in 10.0 mi WSW 8.1 mph - N/A   Clear
1:35 PM 21.2 °F 10.1 °F 5.0 °F 50% 30.28 in 10.0 mi West 10.4 mph - N/A   Clear
1:55 PM 21.2 °F 11.7 °F 5.0 °F 50% 30.28 in 10.0 mi WSW 8.1 mph - N/A   Clear
2:15 PM 23.0 °F 11.7 °F 5.0 °F 46% 30.28 in 10.0 mi SW 11.5 mph - N/A   Clear
2:35 PM 23.0 °F 12.4 °F 6.8 °F 50% 30.29 in 10.0 mi South 10.4 mph - N/A   Clear
3:15 PM 23.0 °F 11.1 °F 6.8 °F 50% 30.29 in 10.0 mi SSW 12.7 mph - N/A   Clear
3:35 PM 23.0 °F 12.4 °F 6.8 °F 50% 30.29 in 10.0 mi South 10.4 mph - N/A   Clear
3:55 PM 23.0 °F 11.7 °F 8.6 °F 54% 30.29 in 10.0 mi SSW 11.5 mph 18.4 mph N/A   Clear
4:15 PM 23.0 °F 12.4 °F 8.6 °F 54% 30.28 in 10.0 mi SW 10.4 mph 17.3 mph N/A   Clear
4:35 PM 23.0 °F 13.1 °F 6.8 °F 50% 30.29 in 10.0 mi SSW 9.2 mph - N/A   Clear
4:55 PM 23.0 °F 13.1 °F 6.8 °F 50% 30.29 in 10.0 mi SW 9.2 mph - N/A   Clear
5:15 PM 23.0 °F 13.1 °F 3.2 °F 43% 30.29 in 10.0 mi SSW 9.2 mph - N/A   Clear
5:35 PM 21.2 °F 12.6 °F 3.2 °F 46% 30.29 in 10.0 mi SSW 6.9 mph - N/A   Clear
5:55 PM 21.2 °F 12.6 °F 3.2 °F 46% 30.30 in 10.0 mi SSW 6.9 mph - N/A   Clear
6:15 PM 21.2 °F 10.1 °F 3.2 °F 46% 30.30 in 10.0 mi SW 10.4 mph - N/A   Clear
6:35 PM 19.4 °F 7.2 °F 5.0 °F 54% 30.29 in 10.0 mi SW 11.5 mph - N/A   Clear
6:55 PM 19.4 °F 9.5 °F 3.2 °F 49% 30.30 in 10.0 mi WSW 8.1 mph - N/A   Clear
7:15 PM 17.6 °F 4.3 °F 5.0 °F 58% 30.30 in 10.0 mi WSW 12.7 mph - N/A   Clear
7:35 PM 17.6 °F 5.7 °F 5.0 °F 58% 30.30 in 10.0 mi WSW 10.4 mph - N/A   Clear
7:55 PM 17.6 °F 5.7 °F 3.2 °F 53% 30.31 in 10.0 mi WSW 10.4 mph - N/A   Clear
8:15 PM 15.8 °F 2.7 °F 3.2 °F 58% 30.31 in 10.0 mi WSW 11.5 mph - N/A   Clear
8:35 PM 15.8 °F 3.4 °F 3.2 °F 58% 30.31 in 10.0 mi WSW 10.4 mph 16.1 mph N/A   Clear
8:55 PM 15.8 °F 3.4 °F 3.2 °F 58% 30.31 in 10.0 mi WSW 10.4 mph - N/A   Clear
9:15 PM 15.8 °F 3.4 °F 3.2 °F 58% 30.31 in 10.0 mi WSW 10.4 mph - N/A   Clear
9:35 PM 14.0 °F 0.5 °F 5.0 °F 67% 30.31 in 10.0 mi West 11.5 mph - N/A   Clear
9:55 PM 14.0 °F 0.5 °F 5.0 °F 67% 30.32 in 10.0 mi West 11.5 mph 17.3 mph N/A   Clear
10:15 PM 12.2 °F -3.1 °F 3.2 °F 67% 30.31 in 10.0 mi West 13.8 mph - N/A   Clear
10:35 PM 12.2 °F -1.8 °F 3.2 °F 67% 30.31 in 10.0 mi West 11.5 mph 16.1 mph N/A   Clear
10:55 PM 12.2 °F -1.8 °F 3.2 °F 67% 30.32 in 10.0 mi West 11.5 mph - N/A   Clear
11:15 PM 12.2 °F -2.5 °F 3.2 °F 67% 30.32 in 10.0 mi West 12.7 mph - N/A   Clear
11:35 PM 12.2 °F -1.0 °F 3.2 °F 67% 30.33 in 10.0 mi West 10.4 mph - N/A   Clear
11:55 PM 10.4 °F -4.1 °F 3.2 °F 73% 30.34 in 10.0 mi West 11.5 mph - N/A   Clear